Location: Cactus School
(34.5700°N, 118.0931°W)
Time: 20:53:04
(UTC-07:00)

Tiros 1 - All Passes

Search period start: 21 April 2024 00:00
Search period end: 01 May 2024 00:00
Orbit: 625 x 657 km, 48.4° (Epoch: 21 April)

Date Brightness Start Highest point End Pass type
(mag) Time Alt. Az. Time Alt. Az. Time Alt. Az.
21 Apr - 01:38:49 10° WNW 01:42:28 22° NNW 01:46:06 10° NNE visible
21 Apr - 03:23:23 10° NNW 03:25:52 14° N 03:28:22 10° NNE visible
21 Apr - 05:05:32 10° NNW 05:09:15 23° NNE 05:12:57 10° ENE visible
21 Apr - 06:47:09 10° NW 06:51:44 87° SW 06:56:20 10° SE daylight
21 Apr - 08:31:22 10° WSW 08:33:13 12° SW 08:35:05 10° SSW daylight
21 Apr - 22:37:52 10° SSW 22:42:08 35° SE 22:46:22 10° ENE night (unlit)
22 Apr - 00:19:43 10° W 00:24:08 41° NNW 00:28:31 10° NE night (unlit)
22 Apr - 02:04:13 10° NW 02:07:09 16° N 02:10:03 10° NNE visible
22 Apr - 03:47:49 10° NNW 03:50:40 16° N 03:53:31 10° NE visible
22 Apr - 05:29:23 10° NW 05:33:42 39° NNE 05:38:01 10° E visible
22 Apr - 07:11:31 10° WNW 07:15:43 36° SW 07:19:55 10° SSE daylight
22 Apr - 21:22:46 10° SSE 21:24:37 12° SE 21:26:26 10° ESE night (unlit)
22 Apr - 23:01:24 10° SW 23:06:06 83° SE 23:10:45 10° NE night (unlit)
23 Apr - 00:44:46 10° WNW 00:48:35 24° NNW 00:52:22 10° NNE visible
23 Apr - 02:29:25 10° NW 02:31:56 14° N 02:34:26 10° NNE visible
23 Apr - 04:11:47 10° NNW 04:15:21 22° NNE 04:18:55 10° ENE visible
23 Apr - 05:53:20 10° NW 05:57:57 81° NE 06:02:32 10° SE daylight
23 Apr - 07:36:57 10° W 07:39:30 15° SW 07:42:04 10° SSW daylight
23 Apr - 21:44:15 10° SSW 21:48:21 30° SE 21:52:25 10° ENE night (unlit)
23 Apr - 23:25:46 10° WSW 23:30:17 46° NNW 23:34:46 10° NE night (unlit)
24 Apr - 01:10:09 10° NW 01:13:13 17° NNW 01:16:16 10° NNE visible
24 Apr - 02:53:58 10° NNW 02:56:44 15° N 02:59:29 10° NE visible
24 Apr - 04:35:37 10° NW 04:39:51 35° NNE 04:44:03 10° E visible
24 Apr - 06:17:36 10° WNW 06:21:57 43° SW 06:26:16 10° SSE daylight
24 Apr - 22:07:36 10° SW 22:12:17 72° SE 22:16:56 10° NE visible
24 Apr - 23:50:43 10° W 23:54:40 26° NNW 23:58:36 10° NE night (unlit)
25 Apr - 01:35:25 10° NW 01:37:58 14° N 01:40:32 10° NNE visible
25 Apr - 03:17:59 10° NNW 03:21:26 20° NNE 03:24:52 10° ENE visible
25 Apr - 04:59:31 10° NW 05:04:06 70° NE 05:08:41 10° ESE visible
25 Apr - 06:42:41 10° W 06:45:45 18° SW 06:48:48 10° S daylight
25 Apr - 20:50:41 10° S 20:54:34 26° SE 20:58:25 10° ENE visible
25 Apr - 22:31:48 10° WSW 22:36:24 53° NNW 22:40:58 10° NE visible
26 Apr - 00:16:02 10° WNW 00:19:16 18° NNW 00:22:28 10° NNE night (unlit)
26 Apr - 02:00:05 10° NNW 02:02:46 15° N 02:05:27 10° NE visible
26 Apr - 03:41:49 10° NW 03:45:57 32° NNE 03:50:04 10° E visible
26 Apr - 05:23:42 10° WNW 05:28:09 50° SW 05:32:34 10° SSE visible
26 Apr - 21:13:48 10° SW 21:18:26 61° SE 21:23:03 10° ENE visible
26 Apr - 22:56:39 10° W 23:00:44 29° NNW 23:04:49 10° NE visible
27 Apr - 00:41:21 10° NW 00:43:59 15° N 00:46:37 10° NNE night (unlit)
27 Apr - 02:24:10 10° NNW 02:27:29 19° NNE 02:30:47 10° ENE visible
27 Apr - 04:05:41 10° NW 04:10:15 61° NE 04:14:47 10° ESE visible
27 Apr - 05:48:32 10° W 05:51:58 21° SW 05:55:23 10° S daylight
27 Apr - 19:57:09 10° S 20:00:46 22° SE 20:04:21 10° E visible
27 Apr - 21:37:51 10° WSW 21:42:31 61° NW 21:47:09 10° NE visible
27 Apr - 23:21:54 10° WNW 23:25:17 19° NNW 23:28:39 10° NNE visible
28 Apr - 01:06:08 10° NNW 01:08:46 15° N 01:11:23 10° NE night (unlit)
28 Apr - 02:48:00 10° NW 02:52:02 29° NNE 02:56:01 10° E visible
28 Apr - 04:29:47 10° WNW 04:34:19 60° SW 04:38:49 10° SE visible
28 Apr - 20:20:01 10° SSW 20:24:35 52° SE 20:29:09 10° ENE visible
28 Apr - 22:02:34 10° W 22:06:48 32° NNW 22:11:00 10° NE visible
28 Apr - 23:47:15 10° NW 23:49:59 15° N 23:52:43 10° NNE visible
29 Apr - 01:30:18 10° NNW 01:33:30 18° NNE 01:36:41 10° ENE night (unlit)
29 Apr - 03:11:50 10° NW 03:16:22 53° NNE 03:20:51 10° ESE visible
29 Apr - 04:54:25 10° WNW 04:58:10 25° SW 05:01:53 10° S visible
29 Apr - 19:03:40 10° S 19:06:56 19° SE 19:10:11 10° E daylight
29 Apr - 20:43:54 10° WSW 20:48:36 71° NW 20:53:18 10° NE visible
29 Apr - 22:27:46 10° WNW 22:31:18 21° NNW 22:34:49 10° NNE visible
30 Apr - 00:12:09 10° NNW 00:14:46 15° N 00:17:21 10° NE visible
30 Apr - 01:54:09 10° NW 01:58:05 26° NNE 02:01:58 10° E night (unlit)
30 Apr - 03:35:51 10° WNW 03:40:27 71° SW 03:45:01 10° SE visible
30 Apr - 19:26:13 10° SSW 19:30:43 44° SE 19:35:11 10° ENE daylight
30 Apr - 21:08:29 10° W 21:12:50 36° NNW 21:17:10 10° NE visible
30 Apr - 22:53:06 10° NW 22:55:58 16° N 22:58:49 10° NNE visible
